Regional Weather Roundup
Issued by NWS

Home | Current Version | Previous Version | Text Only | Print | Product List | Glossary Off
Versions: 1 2 3 4 5 6 7 8 9 10 11 12 13 14 15 16 17 18 19 20 21 22 23 24 25 26 27 28 29 30 31 32 33 34 35 36 37 38 39 40 41 42 43 44 45 46 47 48 49 50

000
ASUS43 KIND 010309
RWRIN

WEATHER ROUNDUP FOR INDIANA
NATIONAL WEATHER SERVICE INDIANAPOLIS IN
1100 PM EDT FRI JUL 31 2015

NOTE: "FAIR" INDICATES FEW OR NO CLOUDS BELOW 12,000 FEET WITH NO
SIGNIFICANT WEATHER AND/OR OBSTRUCTIONS TO VISIBILITY.

* - STATION DOES NOT REPORT WEATHER SUCH AS PRECIPITATION OR FOG.

+ - STATION NOT QUALITY CONTROLLED BY THE NATIONAL WEATHER SERVICE.
    USE DATA WITH CAUTION...ESPECIALLY DEWPOINT AND RELATIVE
    HUMIDITY OBSERVATIONS.

INZ001>003-010>013-019-020-010400-
NORTHWEST INDIANA

CITY           SKY/WX    TMP DP  RH WIND       PRES   REMARKS
GARY /AIRPORT/ CLEAR     77  46  33 NW9       29.97R
KNOX *+        CLEAR     63  59  88 SW3       29.96R
LA PORTE +     CLEAR     63  60  88 CALM      29.98R
MICHIGAN CITY+ CLEAR     63  61  94 CALM      29.97R
MONTICELLO +   CLEAR     69  60  73 W3        29.97R
RENSSELAER +   CLEAR     70  57  64 W3        29.98R
VALPARAISO     CLEAR     71  56  58 W3        29.98R

$$

LMZ046-743>745-010400-
SOUTHERN LAKE MICHIGAN

STATION/POSITION TIME  TEMP    WIND        PRES    WAVE
                       AIR SEA DIR/SP/G            HT
                 (UTC) (F)     (DEG/KT/KT) (MB)    (FT)
BURNS HARBOR     0200   76     340/ 10/ 12 1014.6R
MICHIGAN CITY    0200   74     320/  9/ 10   N/A
5NW MICH CITY    0300   76 74  320/ 10/ 12   N/A     2

$$

INZ004-005-014>016-021>024-010400-
NORTH CENTRAL INDIANA

CITY           SKY/WX    TMP DP  RH WIND       PRES   REMARKS
GOSHEN         CLEAR     64  56  75 SW3       29.96R
LOGANSPORT +   CLEAR     64  54  68 CALM      29.98R
PERU/GRISSOM   CLEAR     72  57  58 NW3       29.97R
ROCHESTER +    CLEAR     70  57  64 CALM      29.97S
SOUTH BEND     PTCLDY    66  56  70 NW3       29.96R
WARSAW +       CLEAR     63  55  77 CALM      29.97R

$$

INZ006>009-017-018-025>027-010400-
NORTHEAST INDIANA

CITY           SKY/WX    TMP DP  RH WIND       PRES   REMARKS
ANGOLA *+      CLEAR     66  57  72 CALM      29.96R
AUBURN +       CLEAR     68  52  56 CALM      29.97R
FORT WAYNE     PTCLDY    71  56  58 NW6       29.97R
HUNTINGTON +   CLEAR     68  59  73 CALM      29.96R

$$

INZ028-029-035-036-043>045-051>053-010400-
WEST CENTRAL INDIANA

CITY           SKY/WX    TMP DP  RH WIND       PRES   REMARKS
CRAWFORDSVL +  CLEAR     68  58  70 W5          N/A
GREENCASTLE +  CLEAR     70  55  60 CALM      30.01R
LAFAYETTE      CLEAR     68  59  73 W3        29.98R
TERRE HAUTE    CLEAR     70  61  73 W3        30.00R

$$

INZ030>032-037>040-046>048-054>057-064-065-010400-
CENTRAL INDIANA

CITY           SKY/WX    TMP DP  RH WIND       PRES   REMARKS
FISHERS *+     CLEAR     72  63  73 W6        29.99
FRANKFORT +    CLEAR     66  66 100 SW6       30.01R
GREENWOOD *+   CLEAR     72  57  60 W3        30.00R
INDIANAPOLIS   PTCLDY    72  58  61 W8        29.98R
-EAGLE CREEK   CLEAR     74  60  61 VRB3G25   29.99R
KOKOMO *+      CLEAR     70  46  43 NW6       29.98R
MARION +       CLEAR     65  59  81 CALM      29.98R
MT COMFORT *+  CLEAR     68  57  68 W8        29.99S
SHELBYVILLE    CLEAR     73  60  63 SW6       29.98R
ZIONSVILLE +   CLEAR     69  60  72 W6        29.99S

$$

INZ033-034-041-042-049-050-058-059-010400-
EAST CENTRAL INDIANA

CITY           SKY/WX    TMP DP  RH WIND       PRES   REMARKS
MUNCIE         CLEAR     70  58  65 W7        29.98R

$$

INZ060-061-067>069-081>083-085>088-010400-
SOUTHWEST INDIANA

CITY           SKY/WX    TMP DP  RH WIND       PRES   REMARKS
EVANSVILLE     CLEAR     77  69  76 W3        30.02R
HUNTINGBURG *+ CLEAR     72  66  83 S3        30.02R
WASHINGTON +   CLEAR     73  65  75 W5        30.01R

$$

INZ062-063-066-070>080-084-089>092-010400-
SOUTH CENTRAL AND SOUTHEAST INDIANA

CITY           SKY/WX    TMP DP  RH WIND       PRES   REMARKS
BLOOMINGTON    CLEAR     66  62  87 CALM      30.02R
MADISON *+     CLEAR     73  61  64 SW6       30.02R
NORTH VERNON + CLEAR     72  66  83 CALM      30.00R
SEYMOUR +      CLEAR     72  63  73 W7        30.00R

$$




USA.gov is the U.S. government's official web portal to all federal, state and local government web resources and services.